Waterloo, IA

9:52 AM CDT on August 23, 2017 (GMT -0500)
Waterloo Municipal

Weather History for KALO - May, 2014

Change the Weather History Date:

Monday, May 26, 2014

  Actual Average Record
Temperature  
Mean Temperature 73 °F 64 °F  
Max Temperature 82 °F 75 °F 94 °F (1967)
Min Temperature 63 °F 53 °F 33 °F (1961)
Degree Days  
Heating Degree Days 0 4  
Month to date heating degree days 210 173  
Since 1 July heating degree days 8318 6989  
Cooling Degree Days 8 2  
Month to date cooling degree days 24 36  
Year to date cooling degree days 26 44  
Growing Degree Days 22 (Base 50)    
Moisture  
Dew Point 63 °F    
Average Humidity 74    
Maximum Humidity 93    
Minimum Humidity 54    
Precipitation  
Precipitation 0.00 in 0.15 in 1.61 in (1986)
Month to date precipitation 2.15 3.76  
Year to date precipitation 13.52 11.35  
Snow  
Snow 0.00 in 0.00 in - ()
Month to date snowfall 0.0 0.0  
Since 1 July snowfall 58.0 35.3  
Snow Depth 0.00 in    
Sea Level Pressure  
Sea Level Pressure 29.93 in    
Wind  
Wind Speed 7 mph (SSW)    
Max Wind Speed 16 mph    
Max Gust Speed 20 mph    
Visibility 10 miles    
Events      
T = Trace of Precipitation, MM = Missing Value Source: NWS Daily Summary

Daily Weather History Graph

Daily Weather History Graph

Search for Another Location

Airport or City:

Trip Planner

Search our weather history database for the weather conditions in past years. The results will help you decide how hot, cold, wet, or windy it might be!

Date:

Astronomy

May. 26, 2014 Rise Set
Actual Time 5:38 AM CDT 8:35 PM CDT
Civil Twilight 5:04 AM CDT 9:09 PM CDT
Nautical Twilight 4:22 AM CDT 9:51 PM CDT
Astronomical Twilight 3:32 AM CDT 10:42 PM CDT
Moon 4:23 AM CDT (5/26) 6:36 PM CDT (5/26)
Length of Visible Light 16h 04m
Length of Day
14h 57m
Waning Crescent, 5% of the Moon is Illuminated
May 26
Waning Crescent
May 28
New
Jun 5
First Quarter
Jun 12
Full
Jun 19
Last Quarter

Hourly Weather History & Observations

Time (CDT) Temp. Heat Index Dew Point Humidity Pressure Visibility Wind Dir Wind Speed Gust Speed Precip Events Conditions
12:54 AM 69.1 °F - 61.0 °F 75% 29.96 in 10.0 mi SSW 8.1 mph - N/A   Overcast
1:54 AM 66.9 °F - 61.0 °F 81% 29.95 in 10.0 mi South 3.5 mph - N/A   Partly Cloudy
2:54 AM 66.0 °F - 61.0 °F 84% 29.95 in 10.0 mi SSE 4.6 mph - N/A   Scattered Clouds
3:54 AM 64.0 °F - 61.0 °F 90% 29.94 in 10.0 mi SSE 4.6 mph - N/A   Clear
4:54 AM 66.0 °F - 62.1 °F 87% 29.96 in 10.0 mi WSW 4.6 mph - N/A   Overcast
5:27 AM 64.9 °F - 61.0 °F 87% 29.96 in 10.0 mi SE 4.6 mph - N/A   Scattered Clouds
5:54 AM 63.0 °F - 61.0 °F 93% 29.94 in 10.0 mi ESE 5.8 mph - N/A   Clear
6:54 AM 68.0 °F - 62.1 °F 81% 29.95 in 10.0 mi SSE 3.5 mph - N/A   Clear
7:54 AM 68.0 °F - 63.0 °F 84% 29.98 in 10.0 mi West 3.5 mph - N/A   Clear
8:54 AM 70.0 °F - 64.0 °F 81% 29.98 in 10.0 mi Calm Calm - N/A   Scattered Clouds
9:54 AM 72.0 °F - 64.9 °F 78% 29.98 in 10.0 mi Variable 4.6 mph - N/A   Clear
10:54 AM 75.9 °F - 64.0 °F 67% 29.96 in 10.0 mi WSW 4.6 mph - N/A   Scattered Clouds
11:54 AM 77.0 °F - 64.9 °F 66% 29.96 in 10.0 mi South 8.1 mph - N/A   Mostly Cloudy
12:54 PM 78.1 °F - 64.0 °F 62% 29.96 in 10.0 mi SW 9.2 mph 16.1 mph N/A   Overcast
1:54 PM 79.0 °F - 64.9 °F 62% 29.95 in 10.0 mi SW 12.7 mph - N/A   Mostly Cloudy
2:54 PM 77.0 °F - 63.0 °F 62% 29.92 in 10.0 mi SSW 11.5 mph - N/A   Overcast
3:54 PM 80.1 °F 81.5 °F 63.0 °F 56% 29.89 in 10.0 mi Variable 6.9 mph - N/A   Clear
4:54 PM 81.0 °F 81.9 °F 62.1 °F 52% 29.87 in 10.0 mi South 10.4 mph - N/A   Scattered Clouds
5:54 PM 79.0 °F - 61.0 °F 54% 29.88 in 10.0 mi SW 10.4 mph - N/A   Partly Cloudy
6:54 PM 77.0 °F - 62.1 °F 60% 29.88 in 10.0 mi SSW 11.5 mph - N/A   Partly Cloudy
7:54 PM 77.0 °F - 63.0 °F 62% 29.89 in 10.0 mi SSW 10.4 mph - N/A   Mostly Cloudy
8:54 PM 73.0 °F - 63.0 °F 71% 29.88 in 10.0 mi SW 8.1 mph - N/A   Clear
9:54 PM 71.1 °F - 63.0 °F 75% 29.91 in 10.0 mi SW 5.8 mph - N/A   Clear
10:54 PM 69.1 °F - 64.0 °F 84% 29.91 in 10.0 mi SW 4.6 mph - N/A   Clear
11:54 PM 70.0 °F - 64.0 °F 81% 29.88 in 10.0 mi SSW 5.8 mph - N/A   Partly Cloudy